STARLINK-32400

Last updated on Thu Nov 21 2024 00:02:04 GMT+0000 (Coordinated Universal Time)

1 61669U 24193J 24325.51558512 .00004612 00000+0 88823-4 0 9990 2 61669 53.1601 138.1035 0001169 82.2928 277.8214 15.49993666 3861
UTC large
Height (km)
Speed (km/s)
/
Latitude / Longitude
Inclination (degrees)
Orbital Period (minutes)
Azimuth
Elevation
Range (km)
Doppler Factor

Next 0 passes for location: London (51.5072 / 0.1276)

Sorry there are no passes over London.